Location: Ladirat
(44.8151°N, 1.9702°E)
Time: 05:01:01
(UTC+00:00)

Cosmos 2297 Rocket - Pass Details

Date: 15 May 2026
Orbit: 838 x 842 km, 71.0° (Epoch: 6 June)

Event Time Altitude Azimuth Distance (km) Brightness Sun altitude
Exits shadow 23:28:06 72° 137° (SE) 882 2.0 -26.0°
Maximum altitude 23:28:22 74° 112° (ESE) 876 2.1 -26.0°
Drops below altitude 10° 23:34:00 10° 29° (NNE) 2,464 5.3 -26.0°
Sets 23:36:27 0° 28° (NNE) 3,403 6.3 -26.1°
